Location: Ethel Rock
(53.4667°N, 4.5667°W)
Time: 01:11:20
(UTC+00:00)

PSLV R/B - Pass Details

Date: 24 October 2020
Orbit: 595 x 628 km, 97.9° (Epoch: 26 November)

Event Time Altitude Azimuth Distance (km) Brightness Sun altitude
Rises 04:35:33 0° 14° (NNE) 2,872 7.3 -22.4°
Reaches altitude 10° 04:37:43 10° 14° (NNE) 1,968 6.4 -22.1°
Maximum altitude 04:42:00 88° 293° (WNW) 619 3.4 -21.5°
Enters shadow 04:43:48 35° 197° (SSW) 1,000 4.4 -21.2°
